DNO455 LGMK-LGAV

Flight info

Callsign DNO455
Flight time 0h 23m
Altitude 12000
Route VARIX
Aircraft A320/M-SDE3FGHIRWY/LB1

Departure

Time 2026-04-23 09:18
Airport Mykonos Island National Airport (LGMK)

Arrival

Time 2026-04-23 09:41
Airport Athens Eleftherios Venizelos International Airport (LGAV)
Time Latitude Longitude Altitude Speed Heading
2026-04-23 09:03 37.43502 25.34644 416 ft 0 kts 250°
2026-04-23 09:10 37.43504 25.34654 416 ft 0 kts 250°
2026-04-23 09:11 37.43507 25.34662 416 ft 2 kts 250°
2026-04-23 09:11 37.43510 25.34673 416 ft 1 kts 250°
2026-04-23 09:11 37.43517 25.34690 416 ft 2 kts 218°
2026-04-23 09:11 37.43530 25.34699 416 ft 2 kts 191°
2026-04-23 09:12 37.43544 25.34699 415 ft 0 kts 164°
2026-04-23 09:12 37.43550 25.34696 415 ft 1 kts 159°
2026-04-23 09:12 37.43552 25.34695 415 ft 0 kts 160°
2026-04-23 09:14 37.43536 25.34702 415 ft 5 kts 160°
2026-04-23 09:14 37.43469 25.34732 416 ft 11 kts 160°
2026-04-23 09:15 37.43410 25.34807 416 ft 13 kts 114°
2026-04-23 09:15 37.43340 25.34902 415 ft 16 kts 160°
2026-04-23 09:15 37.43225 25.34954 413 ft 17 kts 160°
2026-04-23 09:15 37.43096 25.35012 412 ft 22 kts 161°
2026-04-23 09:16 37.42928 25.35084 407 ft 22 kts 160°
2026-04-23 09:16 37.42794 25.35144 396 ft 17 kts 148°
2026-04-23 09:16 37.42721 25.35177 389 ft 9 kts 246°
2026-04-23 09:16 37.42746 25.35141 392 ft 4 kts
2026-04-23 09:17 37.42776 25.35147 395 ft 4 kts
2026-04-23 09:17 37.42806 25.35139 397 ft 7 kts 340°
2026-04-23 09:17 37.42812 25.35136 398 ft 0 kts 341°
2026-04-23 09:18 37.42932 25.35084 407 ft 48 kts 341°
2026-04-23 09:18 37.43453 25.34854 416 ft 108 kts 340°
2026-04-23 09:18 37.44315 25.34469 571 ft 141 kts 340°
2026-04-23 09:18 37.45157 25.33919 1162 ft 139 kts 322°
2026-04-23 09:19 37.45842 25.33089 1816 ft 135 kts 318°
2026-04-23 09:19 37.46438 25.32199 2357 ft 140 kts 303°
2026-04-23 09:19 37.46698 25.30992 2865 ft 148 kts 283°
2026-04-23 09:19 37.46814 25.29706 3400 ft 149 kts 282°
2026-04-23 09:20 37.46968 25.28427 3870 ft 155 kts 285°
2026-04-23 09:20 37.47198 25.27035 4220 ft 172 kts 287°
2026-04-23 09:20 37.47474 25.25503 4638 ft 187 kts 286°
2026-04-23 09:20 37.47790 25.23844 5062 ft 203 kts 287°
2026-04-23 09:21 37.48144 25.22045 5407 ft 226 kts 282°
2026-04-23 09:21 37.48031 25.19975 5842 ft 253 kts 251°
2026-04-23 09:21 37.46981 25.18099 6379 ft 274 kts 229°
2026-04-23 09:21 37.45666 25.16363 7197 ft 277 kts 231°
2026-04-23 09:22 37.44387 25.14608 8108 ft 276 kts 231°
2026-04-23 09:22 37.43100 25.12813 9001 ft 276 kts 232°
2026-04-23 09:22 37.41824 25.11025 9822 ft 276 kts 232°
2026-04-23 09:22 37.40559 25.09251 10551 ft 279 kts 232°
2026-04-23 09:23 37.39237 25.07392 10922 ft 294 kts 232°
2026-04-23 09:23 37.37915 25.05314 11208 ft 308 kts 244°
2026-04-23 09:23 37.37239 25.02788 11608 ft 314 kts 264°
2026-04-23 09:23 37.37329 25.00049 11939 ft 313 kts 282°
2026-04-23 09:24 37.37983 24.97448 11994 ft 313 kts 287°
2026-04-23 09:24 37.38673 24.94872 11997 ft 312 kts 287°
2026-04-23 09:24 37.39366 24.92277 11996 ft 312 kts 287°
2026-04-23 09:24 37.40049 24.89714 11998 ft 312 kts 287°
2026-04-23 09:25 37.40736 24.87126 11998 ft 312 kts 287°
2026-04-23 09:25 37.41418 24.84556 12002 ft 312 kts 287°
2026-04-23 09:25 37.42110 24.81941 12002 ft 312 kts 287°
2026-04-23 09:25 37.42794 24.79354 12005 ft 312 kts 287°
2026-04-23 09:26 37.43473 24.76783 11996 ft 312 kts 287°
2026-04-23 09:26 37.44153 24.74207 12001 ft 312 kts 287°
2026-04-23 09:26 37.44840 24.71598 12003 ft 311 kts 287°
2026-04-23 09:26 37.45512 24.69043 12001 ft 311 kts 287°
2026-04-23 09:27 37.46191 24.66458 11999 ft 312 kts 287°
2026-04-23 09:27 37.46871 24.63867 12002 ft 312 kts 287°
2026-04-23 09:27 37.47554 24.61259 12000 ft 312 kts 287°
2026-04-23 09:27 37.48226 24.58697 11998 ft 312 kts 287°
2026-04-23 09:28 37.48909 24.56091 11996 ft 311 kts 287°
2026-04-23 09:28 37.49582 24.53517 11997 ft 312 kts 287°
2026-04-23 09:28 37.50259 24.50926 11998 ft 312 kts 287°
2026-04-23 09:28 37.50932 24.48340 11998 ft 312 kts 287°
2026-04-23 09:29 37.51608 24.45747 11997 ft 312 kts 287°
2026-04-23 09:29 37.52285 24.43144 12000 ft 312 kts 288°
2026-04-23 09:29 37.52953 24.40574 12001 ft 312 kts 288°
2026-04-23 09:29 37.53637 24.37995 11825 ft 307 kts 290°
2026-04-23 09:30 37.54486 24.35553 11332 ft 307 kts 294°
2026-04-23 09:30 37.55394 24.33162 11128 ft 298 kts 294°
2026-04-23 09:30 37.56273 24.30827 10950 ft 289 kts 295°
2026-04-23 09:30 37.57195 24.28641 10782 ft 280 kts 297°
2026-04-23 09:31 37.58140 24.26551 10619 ft 272 kts 297°
2026-04-23 09:31 37.59057 24.24493 10420 ft 265 kts 297°
2026-04-23 09:31 37.59931 24.22484 10091 ft 264 kts 297°
2026-04-23 09:31 37.60810 24.20433 9733 ft 264 kts 297°
2026-04-23 09:32 37.61669 24.18409 9386 ft 263 kts 297°
2026-04-23 09:32 37.62526 24.16383 9042 ft 263 kts 297°
2026-04-23 09:32 37.63382 24.14356 8700 ft 262 kts 298°
2026-04-23 09:32 37.64241 24.12323 8349 ft 262 kts 298°
2026-04-23 09:33 37.65099 24.10291 8003 ft 262 kts 298°
2026-04-23 09:33 37.65957 24.08257 7655 ft 262 kts 298°
2026-04-23 09:33 37.66798 24.06258 7321 ft 261 kts 299°
2026-04-23 09:33 37.67647 24.04241 6975 ft 261 kts 299°
2026-04-23 09:34 37.68507 24.02195 6623 ft 261 kts 300°
2026-04-23 09:34 37.69358 24.00171 6277 ft 261 kts 300°
2026-04-23 09:34 37.70202 23.98167 5936 ft 261 kts 301°
2026-04-23 09:34 37.71048 23.96152 5585 ft 260 kts 301°
2026-04-23 09:35 37.71893 23.94144 5151 ft 259 kts 301°
2026-04-23 09:35 37.72742 23.92123 4697 ft 259 kts 301°
2026-04-23 09:35 37.73581 23.90120 4310 ft 256 kts 302°
2026-04-23 09:35 37.74394 23.88174 4109 ft 246 kts 302°
2026-04-23 09:36 37.75172 23.86311 3923 ft 237 kts 302°
2026-04-23 09:36 37.75934 23.84487 3727 ft 228 kts 303°
2026-04-23 09:36 37.76660 23.82752 3506 ft 221 kts 303°
2026-04-23 09:36 37.77539 23.81232 3324 ft 206 kts 329°
2026-04-23 09:37 37.78802 23.80660 3153 ft 189 kts
2026-04-23 09:37 37.80060 23.80976 3016 ft 180 kts 21°
2026-04-23 09:37 37.81155 23.81645 3046 ft 169 kts 30°
2026-04-23 09:37 37.82138 23.82433 2860 ft 167 kts 33°
2026-04-23 09:38 37.83088 23.83272 2609 ft 166 kts 35°
2026-04-23 09:38 37.84011 23.84130 2379 ft 166 kts 36°
2026-04-23 09:38 37.84915 23.84990 2134 ft 157 kts 36°
2026-04-23 09:38 37.85753 23.85791 1926 ft 144 kts 36°
2026-04-23 09:39 37.86515 23.86519 1744 ft 133 kts 36°
2026-04-23 09:39 37.87233 23.87205 1568 ft 128 kts 35°
2026-04-23 09:39 37.87948 23.87886 1410 ft 127 kts 35°
2026-04-23 09:39 37.88652 23.88556 1247 ft 126 kts 36°
2026-04-23 09:40 37.89349 23.89220 1085 ft 126 kts 36°
2026-04-23 09:40 37.90046 23.89884 918 ft 126 kts 36°
2026-04-23 09:40 37.90752 23.90555 744 ft 125 kts 36°
2026-04-23 09:40 37.91442 23.91212 574 ft 125 kts 36°
2026-04-23 09:41 37.92133 23.91873 411 ft 124 kts 36°
2026-04-23 09:41 37.92823 23.92530 321 ft 121 kts 37°
2026-04-23 09:41 37.93378 23.93057 317 ft 74 kts 37°
2026-04-23 09:41 37.93719 23.93382 317 ft 46 kts 37°
2026-04-23 09:42 37.93898 23.93614 317 ft 32 kts 60°
2026-04-23 09:42 37.93970 23.93810 317 ft 22 kts 66°
2026-04-23 09:42 37.94050 23.93970 317 ft 21 kts 40°
2026-04-23 09:42 37.94165 23.94080 317 ft 20 kts 36°
2026-04-23 09:43 37.94278 23.94185 317 ft 19 kts 37°
2026-04-23 09:43 37.94385 23.94290 317 ft 19 kts 37°
2026-04-23 09:43 37.94492 23.94392 317 ft 18 kts 37°
2026-04-23 09:43 37.94595 23.94492 316 ft 18 kts 37°
2026-04-23 09:44 37.94680 23.94601 317 ft 17 kts 86°
2026-04-23 09:44 37.94621 23.94732 317 ft 17 kts 126°
2026-04-23 09:44 37.94546 23.94856 317 ft 17 kts 127°
2026-04-23 09:44 37.94477 23.94973 317 ft 16 kts 127°
2026-04-23 09:45 37.94411 23.95082 317 ft 15 kts 127°
2026-04-23 09:45 37.94347 23.95190 317 ft 16 kts 127°
2026-04-23 09:45 37.94277 23.95308 317 ft 16 kts 127°
2026-04-23 09:45 37.94209 23.95421 317 ft 15 kts 127°
2026-04-23 09:46 37.94146 23.95528 317 ft 14 kts 127°
2026-04-23 09:46 37.94060 23.95528 317 ft 13 kts 216°
2026-04-23 09:46 37.93984 23.95455 317 ft 13 kts 217°
2026-04-23 09:46 37.93910 23.95375 317 ft 15 kts 235°
2026-04-23 09:47 37.93865 23.95250 317 ft 15 kts 248°
2026-04-23 09:47 37.93795 23.95155 317 ft 14 kts 217°
2026-04-23 09:47 37.93715 23.95079 317 ft 14 kts 217°
2026-04-23 09:47 37.93659 23.94998 317 ft 9 kts 279°
2026-04-23 09:48 37.93690 23.94935 317 ft 3 kts 308°
2026-04-23 09:48 37.93693 23.94929 317 ft 0 kts 307°